Location: ??????????
(42.1626°N, 44.1160°E)
Time: 14:49:27
(UTC+00:00)

Meteor 1-14 Rocket - Pass Details

Date: 03 March 2021
Orbit: 834 x 918 km, 81.3° (Epoch: 20 April)

Event Time Altitude Azimuth Distance (km) Brightness Sun altitude
Rises 15:54:13 0° 181° (S) 3,401 7.3 -11.6°
Reaches altitude 10° 15:56:38 10° 179° (S) 2,461 6.6 -12.0°
Maximum altitude 16:02:09 69° 97° (E) 894 4.1 -13.1°
Drops below altitude 10° 16:07:40 10° 15° (NNE) 2,455 6.5 -14.1°
Sets 16:10:05 0° 13° (NNE) 3,393 7.3 -14.5°
